Year,Month,Day,Hour,Minute,Value (Times are PST for windspeed in km/hr)
2015,07,16,00,00,0.00
2015,07,16,00,01,0.00
2015,07,16,00,02,0.00
2015,07,16,00,03,0.00
2015,07,16,00,04,0.10
2015,07,16,00,05,0.00
2015,07,16,00,06,0.00
2015,07,16,00,07,0.00
2015,07,16,00,08,0.00
2015,07,16,00,09,0.00
2015,07,16,00,10,0.00
2015,07,16,00,11,0.00
2015,07,16,00,12,0.00
2015,07,16,00,13,0.00
2015,07,16,00,14,0.00
2015,07,16,00,15,0.00
2015,07,16,00,16,0.00
2015,07,16,00,17,0.00
2015,07,16,00,18,0.00
2015,07,16,00,19,0.40
2015,07,16,00,20,0.00
2015,07,16,00,21,0.00
2015,07,16,00,22,0.90
2015,07,16,00,23,2.60
2015,07,16,00,24,3.80
2015,07,16,00,25,3.60
2015,07,16,00,26,1.60
2015,07,16,00,27,2.20
2015,07,16,00,28,3.20
2015,07,16,00,29,3.70
2015,07,16,00,30,4.30
2015,07,16,00,31,5.10
2015,07,16,00,32,4.70
2015,07,16,00,33,6.80
2015,07,16,00,34,10.50
2015,07,16,00,35,9.10
2015,07,16,00,36,4.30
2015,07,16,00,37,4.10
2015,07,16,00,38,4.30
2015,07,16,00,39,2.10
2015,07,16,00,40,3.20
2015,07,16,00,41,3.90
2015,07,16,00,42,5.00
2015,07,16,00,43,4.50
2015,07,16,00,44,5.50
2015,07,16,00,45,3.70
2015,07,16,00,46,2.50
2015,07,16,00,47,3.70
2015,07,16,00,48,4.00
2015,07,16,00,49,4.00
2015,07,16,00,50,3.00
2015,07,16,00,51,4.70
2015,07,16,00,52,3.40
2015,07,16,00,53,4.20
2015,07,16,00,54,3.50
2015,07,16,00,55,3.60
2015,07,16,00,56,5.30
2015,07,16,00,57,6.10
2015,07,16,00,58,3.40
2015,07,16,00,59,3.40
2015,07,16,01,00,3.60
2015,07,16,01,01,3.70
2015,07,16,01,02,4.40
2015,07,16,01,03,3.80
2015,07,16,01,04,3.80
2015,07,16,01,05,3.70
2015,07,16,01,06,4.30
2015,07,16,01,07,4.10
2015,07,16,01,08,3.50
2015,07,16,01,09,4.00
2015,07,16,01,10,3.90
2015,07,16,01,11,2.60
2015,07,16,01,12,3.20
2015,07,16,01,13,5.30
2015,07,16,01,14,4.70
2015,07,16,01,15,3.60
2015,07,16,01,16,3.90
2015,07,16,01,17,1.50
2015,07,16,01,18,3.40
2015,07,16,01,19,3.50
2015,07,16,01,20,3.50
2015,07,16,01,21,3.80
2015,07,16,01,22,1.90
2015,07,16,01,23,2.40
2015,07,16,01,24,3.00
2015,07,16,01,25,0.30
2015,07,16,01,26,1.20
2015,07,16,01,27,1.90
2015,07,16,01,28,0.00
2015,07,16,01,29,1.40
2015,07,16,01,30,3.00
2015,07,16,01,31,1.80
2015,07,16,01,32,1.20
2015,07,16,01,33,1.40
2015,07,16,01,34,1.50
2015,07,16,01,35,0.80
2015,07,16,01,36,3.20
2015,07,16,01,37,2.70
2015,07,16,01,38,3.30
2015,07,16,01,39,2.10
2015,07,16,01,40,0.20
2015,07,16,01,41,2.80
2015,07,16,01,42,2.40
2015,07,16,01,43,2.60
2015,07,16,01,44,1.90
2015,07,16,01,45,1.40
2015,07,16,01,46,1.90
2015,07,16,01,47,1.10
2015,07,16,01,48,4.10
2015,07,16,01,49,2.80
2015,07,16,01,50,3.10
2015,07,16,01,51,1.80
2015,07,16,01,52,2.70
2015,07,16,01,53,2.60
2015,07,16,01,54,0.10
2015,07,16,01,55,1.20
2015,07,16,01,56,0.30
2015,07,16,01,57,0.00
2015,07,16,01,58,0.10
2015,07,16,01,59,0.00
2015,07,16,02,00,0.00
2015,07,16,02,01,0.00
2015,07,16,02,02,2.30
2015,07,16,02,03,3.80
2015,07,16,02,04,4.10
2015,07,16,02,05,4.30
2015,07,16,02,06,2.60
2015,07,16,02,07,2.60
2015,07,16,02,08,4.70
2015,07,16,02,09,4.30
2015,07,16,02,10,5.30
2015,07,16,02,11,2.20
2015,07,16,02,12,3.30
2015,07,16,02,13,4.10
2015,07,16,02,14,4.30
2015,07,16,02,15,4.70
2015,07,16,02,16,6.00
2015,07,16,02,17,5.90
2015,07,16,02,18,3.80
2015,07,16,02,19,4.40
2015,07,16,02,20,6.20
2015,07,16,02,21,6.40
2015,07,16,02,22,6.20
2015,07,16,02,23,5.30
2015,07,16,02,24,5.80
2015,07,16,02,25,5.60
2015,07,16,02,26,4.40
2015,07,16,02,27,3.90
2015,07,16,02,28,4.10
2015,07,16,02,29,5.10
2015,07,16,02,30,3.40
2015,07,16,02,31,0.90
2015,07,16,02,32,5.50
2015,07,16,02,33,6.40
2015,07,16,02,34,5.30
2015,07,16,02,35,5.10
2015,07,16,02,36,5.10
2015,07,16,02,37,5.10
2015,07,16,02,38,4.50
2015,07,16,02,39,3.60
2015,07,16,02,40,2.80
2015,07,16,02,41,4.30
2015,07,16,02,42,6.20
2015,07,16,02,43,5.00
2015,07,16,02,44,6.40
2015,07,16,02,45,6.40
2015,07,16,02,46,6.20
2015,07,16,02,47,6.00
2015,07,16,02,48,5.10
2015,07,16,02,49,3.80
2015,07,16,02,50,3.10
2015,07,16,02,51,3.90
2015,07,16,02,52,4.70
2015,07,16,02,53,4.30
2015,07,16,02,54,3.50
2015,07,16,02,55,5.10
2015,07,16,02,56,5.10
2015,07,16,02,57,5.00
2015,07,16,02,58,4.50
2015,07,16,02,59,5.60
2015,07,16,03,00,3.60
2015,07,16,03,01,4.40
2015,07,16,03,02,5.10
2015,07,16,03,03,5.50
2015,07,16,03,04,4.30
2015,07,16,03,05,4.10
2015,07,16,03,06,4.00
2015,07,16,03,07,4.80
2015,07,16,03,08,4.20
2015,07,16,03,09,6.40
2015,07,16,03,10,5.90
2015,07,16,03,11,5.40
2015,07,16,03,12,4.70
2015,07,16,03,13,4.00
2015,07,16,03,14,4.80
2015,07,16,03,15,3.80
2015,07,16,03,16,3.90
2015,07,16,03,17,5.30
2015,07,16,03,18,4.20
2015,07,16,03,19,4.40
2015,07,16,03,20,3.90
2015,07,16,03,21,6.40
2015,07,16,03,22,6.80
2015,07,16,03,23,6.40
2015,07,16,03,24,7.10
2015,07,16,03,25,5.30
2015,07,16,03,26,5.70
2015,07,16,03,27,5.40
2015,07,16,03,28,6.60
2015,07,16,03,29,5.40
2015,07,16,03,30,6.40
2015,07,16,03,31,3.10
2015,07,16,03,32,3.90
2015,07,16,03,33,5.60
2015,07,16,03,34,4.80
2015,07,16,03,35,4.70
2015,07,16,03,36,5.30
2015,07,16,03,37,5.00
2015,07,16,03,38,5.70
2015,07,16,03,39,6.90
2015,07,16,03,40,4.70
2015,07,16,03,41,5.50
2015,07,16,03,42,3.00
2015,07,16,03,43,5.50
2015,07,16,03,44,6.10
2015,07,16,03,45,7.30
2015,07,16,03,46,7.30
2015,07,16,03,47,6.20
2015,07,16,03,48,4.40
2015,07,16,03,49,4.90
2015,07,16,03,50,6.40
2015,07,16,03,51,6.40
2015,07,16,03,52,4.30
2015,07,16,03,53,4.70
2015,07,16,03,54,8.00
2015,07,16,03,55,6.30
2015,07,16,03,56,6.70
2015,07,16,03,57,3.50
2015,07,16,03,58,5.20
2015,07,16,03,59,3.20
2015,07,16,04,00,4.70
2015,07,16,04,01,5.10
2015,07,16,04,02,7.00
2015,07,16,04,03,5.10
2015,07,16,04,04,4.40
2015,07,16,04,05,5.10
2015,07,16,04,06,5.00
2015,07,16,04,07,5.50
2015,07,16,04,08,4.50
2015,07,16,04,09,5.20
2015,07,16,04,10,4.20
2015,07,16,04,11,5.80
2015,07,16,04,12,3.90
2015,07,16,04,13,5.60
2015,07,16,04,14,5.00
2015,07,16,04,15,4.70
2015,07,16,04,16,5.00
2015,07,16,04,17,3.80
2015,07,16,04,18,5.10
2015,07,16,04,19,6.40
2015,07,16,04,20,3.60
2015,07,16,04,21,4.50
2015,07,16,04,22,3.50
2015,07,16,04,23,5.30
2015,07,16,04,24,7.40
2015,07,16,04,25,5.40
2015,07,16,04,26,6.30
2015,07,16,04,27,4.30
2015,07,16,04,28,6.70
2015,07,16,04,29,6.00
2015,07,16,04,30,5.70
2015,07,16,04,31,3.30
2015,07,16,04,32,4.40
2015,07,16,04,33,4.00
2015,07,16,04,34,1.90
2015,07,16,04,35,3.50
2015,07,16,04,36,5.70
2015,07,16,04,37,9.40
2015,07,16,04,38,8.60
2015,07,16,04,39,6.90
2015,07,16,04,40,5.20
2015,07,16,04,41,7.50
2015,07,16,04,42,5.10
2015,07,16,04,43,4.60
2015,07,16,04,44,4.70
2015,07,16,04,45,6.40
2015,07,16,04,46,4.80
2015,07,16,04,47,4.30
2015,07,16,04,48,6.40
2015,07,16,04,49,5.80
2015,07,16,04,50,4.60
2015,07,16,04,51,5.80
2015,07,16,04,52,5.10
2015,07,16,04,53,4.30
2015,07,16,04,54,7.00
2015,07,16,04,55,8.00
2015,07,16,04,56,6.60
2015,07,16,04,57,3.90
2015,07,16,04,58,4.20
2015,07,16,04,59,5.80
2015,07,16,05,00,7.00
2015,07,16,05,01,1.80
2015,07,16,05,02,3.10
2015,07,16,05,03,2.00
2015,07,16,05,04,5.00
2015,07,16,05,05,5.50
2015,07,16,05,06,4.60
2015,07,16,05,07,3.40
2015,07,16,05,08,6.00
2015,07,16,05,09,3.60
2015,07,16,05,10,4.40
2015,07,16,05,11,2.10
2015,07,16,05,12,6.90
2015,07,16,05,13,3.10
2015,07,16,05,14,4.70
2015,07,16,05,15,2.90
2015,07,16,05,16,2.50
2015,07,16,05,17,0.00
2015,07,16,05,18,0.10
2015,07,16,05,19,0.00
2015,07,16,05,20,1.00
2015,07,16,05,21,2.70
2015,07,16,05,22,2.90
2015,07,16,05,23,1.60
2015,07,16,05,24,2.60
2015,07,16,05,25,3.20
2015,07,16,05,26,3.80
2015,07,16,05,27,2.20
2015,07,16,05,28,4.50
2015,07,16,05,29,1.90
2015,07,16,05,30,3.40
2015,07,16,05,31,4.70
2015,07,16,05,32,1.10
2015,07,16,05,33,3.10
2015,07,16,05,34,4.20
2015,07,16,05,35,4.80
2015,07,16,05,36,4.40
2015,07,16,05,37,6.30
2015,07,16,05,38,3.30
2015,07,16,05,39,4.00
2015,07,16,05,40,5.70
2015,07,16,05,41,6.00
2015,07,16,05,42,6.00
2015,07,16,05,43,5.10
2015,07,16,05,44,4.90
2015,07,16,05,45,3.90
2015,07,16,05,46,2.70
2015,07,16,05,47,7.00
2015,07,16,05,48,3.80
2015,07,16,05,49,3.40
2015,07,16,05,50,5.80
2015,07,16,05,51,5.80
2015,07,16,05,52,5.90
2015,07,16,05,53,5.30
2015,07,16,05,54,4.50
2015,07,16,05,55,1.20
2015,07,16,05,56,3.20
2015,07,16,05,57,2.90
2015,07,16,05,58,4.50
2015,07,16,05,59,3.40
2015,07,16,06,00,3.10
2015,07,16,06,01,4.60
2015,07,16,06,02,4.30
2015,07,16,06,03,1.30
2015,07,16,06,04,1.70
2015,07,16,06,05,4.70
2015,07,16,06,06,5.40
2015,07,16,06,07,6.80
2015,07,16,06,08,6.80
2015,07,16,06,09,4.00
2015,07,16,06,10,2.10
2015,07,16,06,11,1.40
2015,07,16,06,12,5.10
2015,07,16,06,13,2.80
2015,07,16,06,14,8.60
2015,07,16,06,15,4.00
2015,07,16,06,16,5.10
2015,07,16,06,17,3.40
2015,07,16,06,18,3.00
2015,07,16,06,19,5.10
2015,07,16,06,20,3.20
2015,07,16,06,21,2.50
2015,07,16,06,22,5.60
2015,07,16,06,23,5.30
2015,07,16,06,24,4.50
2015,07,16,06,25,5.80
2015,07,16,06,26,4.00
2015,07,16,06,27,6.70
2015,07,16,06,28,6.40
2015,07,16,06,29,7.20
2015,07,16,06,30,7.90
2015,07,16,06,31,4.80
2015,07,16,06,32,4.20
2015,07,16,06,33,7.00
2015,07,16,06,34,6.50
2015,07,16,06,35,5.80
2015,07,16,06,36,4.40
2015,07,16,06,37,4.80
2015,07,16,06,38,5.00
2015,07,16,06,39,5.80
2015,07,16,06,40,5.40
2015,07,16,06,41,4.70
2015,07,16,06,42,7.00
2015,07,16,06,43,5.30
2015,07,16,06,44,5.10
2015,07,16,06,45,6.90
2015,07,16,06,46,5.80
2015,07,16,06,47,4.30
2015,07,16,06,48,6.00
2015,07,16,06,49,2.90
2015,07,16,06,50,4.30
2015,07,16,06,51,7.50
2015,07,16,06,52,7.30
2015,07,16,06,53,8.70
2015,07,16,06,54,9.10
2015,07,16,06,55,6.40
2015,07,16,06,56,6.10
2015,07,16,06,57,6.40
2015,07,16,06,58,5.60
2015,07,16,06,59,6.50
2015,07,16,07,00,5.40
2015,07,16,07,01,5.40
2015,07,16,07,02,6.20
2015,07,16,07,03,5.40
2015,07,16,07,04,4.90
2015,07,16,07,05,4.30
2015,07,16,07,06,2.30
2015,07,16,07,07,1.70
2015,07,16,07,08,3.20
2015,07,16,07,09,4.60
2015,07,16,07,10,5.10
2015,07,16,07,11,4.00
2015,07,16,07,12,1.00
2015,07,16,07,13,1.00
2015,07,16,07,14,4.10
2015,07,16,07,15,5.80
2015,07,16,07,16,4.70
2015,07,16,07,17,5.20
2015,07,16,07,18,5.80
2015,07,16,07,19,4.70
2015,07,16,07,20,4.60
2015,07,16,07,21,2.70
2015,07,16,07,22,4.00
2015,07,16,07,23,5.00
2015,07,16,07,24,1.50
2015,07,16,07,25,2.30
2015,07,16,07,26,4.00
2015,07,16,07,27,4.40
2015,07,16,07,28,5.60
2015,07,16,07,29,5.70
2015,07,16,07,30,5.20
2015,07,16,07,31,4.80
2015,07,16,07,32,5.80
2015,07,16,07,33,2.50
2015,07,16,07,34,3.50
2015,07,16,07,35,3.30
2015,07,16,07,36,6.90
2015,07,16,07,37,6.10
2015,07,16,07,38,5.50
2015,07,16,07,39,3.30
2015,07,16,07,40,5.80
2015,07,16,07,41,4.30
2015,07,16,07,42,0.20
2015,07,16,07,43,1.30
2015,07,16,07,44,0.80
2015,07,16,07,45,6.20
2015,07,16,07,46,3.50
2015,07,16,07,47,0.00
2015,07,16,07,48,0.00
2015,07,16,07,49,0.00
2015,07,16,07,50,3.10
2015,07,16,07,51,4.10
2015,07,16,07,52,2.40
2015,07,16,07,53,1.30
2015,07,16,07,54,0.90
2015,07,16,07,55,0.30
2015,07,16,07,56,1.80
2015,07,16,07,57,1.90
2015,07,16,07,58,5.30
2015,07,16,07,59,1.00
2015,07,16,08,00,4.10
2015,07,16,08,01,0.60
2015,07,16,08,02,0.10
2015,07,16,08,03,0.50
2015,07,16,08,04,0.00
2015,07,16,08,05,0.00
2015,07,16,08,06,0.00
2015,07,16,08,07,0.00
2015,07,16,08,08,0.00
2015,07,16,08,09,0.00
2015,07,16,08,10,4.60
2015,07,16,08,11,7.60
2015,07,16,08,12,6.40
2015,07,16,08,13,6.60
2015,07,16,08,14,5.30
2015,07,16,08,15,4.90
2015,07,16,08,16,4.90
2015,07,16,08,17,1.60
2015,07,16,08,18,5.00
2015,07,16,08,19,9.60
2015,07,16,08,20,7.40
2015,07,16,08,21,6.20
2015,07,16,08,22,4.60
2015,07,16,08,23,6.40
2015,07,16,08,24,3.90
2015,07,16,08,25,0.00
2015,07,16,08,26,0.00
2015,07,16,08,27,0.00
2015,07,16,08,28,0.00
2015,07,16,08,29,0.90
2015,07,16,08,30,2.40
2015,07,16,08,31,3.30
2015,07,16,08,32,0.00
2015,07,16,08,33,1.10
2015,07,16,08,34,0.40
2015,07,16,08,35,0.30
2015,07,16,08,36,0.00
2015,07,16,08,37,0.80
2015,07,16,08,38,2.20
2015,07,16,08,39,5.80
2015,07,16,08,40,6.80
2015,07,16,08,41,4.50
2015,07,16,08,42,2.50
2015,07,16,08,43,3.50
2015,07,16,08,44,2.30
2015,07,16,08,45,2.30
2015,07,16,08,46,2.20
2015,07,16,08,47,0.30
2015,07,16,08,48,0.20
2015,07,16,08,49,1.60
2015,07,16,08,50,0.30
2015,07,16,08,51,0.00
2015,07,16,08,52,0.10
2015,07,16,08,53,1.10
2015,07,16,08,54,0.40
2015,07,16,08,55,4.00
2015,07,16,08,56,3.10
2015,07,16,08,57,1.90
2015,07,16,08,58,2.80
2015,07,16,08,59,0.70
2015,07,16,09,00,1.20
2015,07,16,09,01,0.20
2015,07,16,09,02,0.00
2015,07,16,09,03,0.00
2015,07,16,09,04,0.10
2015,07,16,09,05,1.90
2015,07,16,09,06,2.00
2015,07,16,09,07,1.30
2015,07,16,09,08,0.00
2015,07,16,09,09,1.30
2015,07,16,09,10,1.50
2015,07,16,09,11,4.10
2015,07,16,09,12,0.60
2015,07,16,09,13,0.80
2015,07,16,09,14,2.50
2015,07,16,09,15,1.10
2015,07,16,09,16,0.10
2015,07,16,09,17,0.00
2015,07,16,09,18,0.20
2015,07,16,09,19,1.40
2015,07,16,09,20,2.80
2015,07,16,09,21,5.60
2015,07,16,09,22,2.80
2015,07,16,09,23,0.30
2015,07,16,09,24,1.40
2015,07,16,09,25,1.90
2015,07,16,09,26,3.30
2015,07,16,09,27,2.30
2015,07,16,09,28,3.30
2015,07,16,09,29,1.40
2015,07,16,09,30,1.80
2015,07,16,09,31,4.20
2015,07,16,09,32,3.50
2015,07,16,09,33,0.10
2015,07,16,09,34,0.40
2015,07,16,09,35,2.60
2015,07,16,09,36,0.10
2015,07,16,09,37,0.10
2015,07,16,09,38,0.00
2015,07,16,09,39,0.30
2015,07,16,09,40,0.20
2015,07,16,09,41,0.40
2015,07,16,09,42,2.20
2015,07,16,09,43,0.00
2015,07,16,09,44,0.30
2015,07,16,09,45,0.00
2015,07,16,09,46,2.70
2015,07,16,09,47,4.60
2015,07,16,09,48,3.90
2015,07,16,09,49,0.60
2015,07,16,09,50,3.90
2015,07,16,09,51,1.10
2015,07,16,09,52,0.10
2015,07,16,09,53,0.30
2015,07,16,09,54,2.90
2015,07,16,09,55,2.00
2015,07,16,09,56,0.00
2015,07,16,09,57,0.10
2015,07,16,09,58,0.90
2015,07,16,09,59,2.60
2015,07,16,10,00,0.20
2015,07,16,10,01,1.20
2015,07,16,10,02,0.70
2015,07,16,10,03,2.90
2015,07,16,10,04,2.10
2015,07,16,10,05,0.20
2015,07,16,10,06,0.40
2015,07,16,10,07,1.70
2015,07,16,10,08,3.10
2015,07,16,10,09,5.30
2015,07,16,10,10,3.80
2015,07,16,10,11,3.30
2015,07,16,10,12,1.00
2015,07,16,10,13,0.00
2015,07,16,10,14,0.60
2015,07,16,10,15,0.00
2015,07,16,10,16,0.00
2015,07,16,10,17,2.30
2015,07,16,10,18,1.00
2015,07,16,10,19,4.10
2015,07,16,10,20,4.60
2015,07,16,10,21,3.10
2015,07,16,10,22,3.10
2015,07,16,10,23,4.30
2015,07,16,10,24,3.40
2015,07,16,10,25,0.30
2015,07,16,10,26,0.00
2015,07,16,10,27,0.00
2015,07,16,10,28,0.20
2015,07,16,10,29,3.00
2015,07,16,10,30,2.50
2015,07,16,10,31,4.70
2015,07,16,10,32,0.70
2015,07,16,10,33,0.10
2015,07,16,10,34,1.40
2015,07,16,10,35,2.70
2015,07,16,10,36,0.00
2015,07,16,10,37,0.00
2015,07,16,10,38,0.20
2015,07,16,10,39,0.20
2015,07,16,10,40,2.20
2015,07,16,10,41,2.30
2015,07,16,10,42,0.80
2015,07,16,10,43,0.60
2015,07,16,10,44,0.00
2015,07,16,10,45,0.00
2015,07,16,10,46,0.00
2015,07,16,10,47,3.00
2015,07,16,10,48,1.20
2015,07,16,10,49,4.50
2015,07,16,10,50,1.40
2015,07,16,10,51,1.60
2015,07,16,10,52,2.10
2015,07,16,10,53,3.60
2015,07,16,10,54,3.60
2015,07,16,10,55,5.40
2015,07,16,10,56,2.70
2015,07,16,10,57,1.30
2015,07,16,10,58,0.00
2015,07,16,10,59,0.00
2015,07,16,11,00,0.20
2015,07,16,11,01,3.00
2015,07,16,11,02,4.90
2015,07,16,11,03,2.20
2015,07,16,11,04,2.50
2015,07,16,11,05,0.10
2015,07,16,11,06,0.00
2015,07,16,11,07,2.70
2015,07,16,11,08,5.90
2015,07,16,11,09,2.20
2015,07,16,11,10,2.30
2015,07,16,11,11,4.50
2015,07,16,11,12,2.70
2015,07,16,11,13,4.10
2015,07,16,11,14,3.60
2015,07,16,11,15,0.00
2015,07,16,11,16,0.20
2015,07,16,11,17,0.20
2015,07,16,11,18,0.10
2015,07,16,11,19,0.20
2015,07,16,11,20,2.50
2015,07,16,11,21,5.50
2015,07,16,11,22,1.20
2015,07,16,11,23,1.50
2015,07,16,11,24,1.30
2015,07,16,11,25,1.80
2015,07,16,11,26,3.10
2015,07,16,11,27,0.50
2015,07,16,11,28,3.80
2015,07,16,11,29,3.40
2015,07,16,11,30,0.00
2015,07,16,11,31,0.00
2015,07,16,11,32,0.40
2015,07,16,11,33,0.50
2015,07,16,11,34,2.70
2015,07,16,11,35,1.80
2015,07,16,11,36,0.50
2015,07,16,11,37,1.00
2015,07,16,11,38,3.10
2015,07,16,11,39,3.10
2015,07,16,11,40,2.10
2015,07,16,11,41,2.10
2015,07,16,11,42,0.50
2015,07,16,11,43,0.00
2015,07,16,11,44,0.00
2015,07,16,11,45,0.50
2015,07,16,11,46,4.90
2015,07,16,11,47,4.10
2015,07,16,11,48,0.90
2015,07,16,11,49,0.80
2015,07,16,11,50,3.40
2015,07,16,11,51,4.30
2015,07,16,11,52,3.80
2015,07,16,11,53,1.10
2015,07,16,11,54,4.10
2015,07,16,11,55,3.00
2015,07,16,11,56,3.50
2015,07,16,11,57,5.60
2015,07,16,11,58,2.30
2015,07,16,11,59,4.10
2015,07,16,12,00,4.70
2015,07,16,12,01,5.20
2015,07,16,12,02,3.40
2015,07,16,12,03,0.40
2015,07,16,12,04,0.20
2015,07,16,12,05,1.20
2015,07,16,12,06,0.30
2015,07,16,12,07,0.20
2015,07,16,12,08,3.50
2015,07,16,12,09,3.00
2015,07,16,12,10,1.50
2015,07,16,12,11,2.30
2015,07,16,12,12,5.40
2015,07,16,12,13,0.50
2015,07,16,12,14,0.00
2015,07,16,12,15,0.00
2015,07,16,12,16,0.10
2015,07,16,12,17,0.00
2015,07,16,12,18,0.00
2015,07,16,12,19,0.00
2015,07,16,12,20,2.20
2015,07,16,12,21,3.20
2015,07,16,12,22,6.60
2015,07,16,12,23,4.20
2015,07,16,12,24,6.60
2015,07,16,12,25,5.30
2015,07,16,12,26,6.70
2015,07,16,12,27,4.20
2015,07,16,12,28,1.00
2015,07,16,12,29,6.50
2015,07,16,12,30,6.80
2015,07,16,12,31,7.10
2015,07,16,12,32,10.60
2015,07,16,12,33,3.90
2015,07,16,12,34,2.70
2015,07,16,12,35,4.70
2015,07,16,12,36,1.60
2015,07,16,12,37,4.30
2015,07,16,12,38,0.80
2015,07,16,12,39,0.50
2015,07,16,12,40,3.90
2015,07,16,12,41,3.30
2015,07,16,12,42,2.50
2015,07,16,12,43,3.00
2015,07,16,12,44,2.70
2015,07,16,12,45,4.50
2015,07,16,12,46,1.90
2015,07,16,12,47,0.70
2015,07,16,12,48,4.20
2015,07,16,12,49,8.10
2015,07,16,12,50,10.80
2015,07,16,12,51,5.20
2015,07,16,12,52,0.30
2015,07,16,12,53,2.50
2015,07,16,12,54,10.10
2015,07,16,12,55,9.90
2015,07,16,12,56,7.10
2015,07,16,12,57,7.20
2015,07,16,12,58,5.50
2015,07,16,12,59,9.60
2015,07,16,13,00,1.40
2015,07,16,13,01,0.10
2015,07,16,13,02,7.20
2015,07,16,13,03,1.00
2015,07,16,13,04,2.20
2015,07,16,13,05,5.80
2015,07,16,13,06,5.50
2015,07,16,13,07,0.60
2015,07,16,13,08,0.00
2015,07,16,13,09,1.90
2015,07,16,13,10,3.30
2015,07,16,13,11,6.40
2015,07,16,13,12,9.60
2015,07,16,13,13,11.10
2015,07,16,13,14,11.30
2015,07,16,13,15,8.00
2015,07,16,13,16,7.00
2015,07,16,13,17,2.10
2015,07,16,13,18,1.50
2015,07,16,13,19,0.30
2015,07,16,13,20,1.40
2015,07,16,13,21,2.50
2015,07,16,13,22,3.40
2015,07,16,13,23,3.20
2015,07,16,13,24,4.30
2015,07,16,13,25,2.20
2015,07,16,13,26,3.40
2015,07,16,13,27,5.00
2015,07,16,13,28,0.70
2015,07,16,13,29,0.50
2015,07,16,13,30,4.50
2015,07,16,13,31,0.40
2015,07,16,13,32,1.20
2015,07,16,13,33,0.30
2015,07,16,13,34,0.10
2015,07,16,13,35,0.00
2015,07,16,13,36,0.00
2015,07,16,13,37,0.10
2015,07,16,13,38,1.50
2015,07,16,13,39,5.60
2015,07,16,13,40,2.80
2015,07,16,13,41,0.40
2015,07,16,13,42,0.20
2015,07,16,13,43,1.00
2015,07,16,13,44,0.00
2015,07,16,13,45,3.00
2015,07,16,13,46,3.10
2015,07,16,13,47,5.60
2015,07,16,13,48,1.20
2015,07,16,13,49,0.80
2015,07,16,13,50,3.30
2015,07,16,13,51,3.50
2015,07,16,13,52,1.00
2015,07,16,13,53,4.80
2015,07,16,13,54,3.30
2015,07,16,13,55,2.60
2015,07,16,13,56,2.00
2015,07,16,13,57,2.00
2015,07,16,13,58,6.90
2015,07,16,13,59,6.40
2015,07,16,14,00,0.00
2015,07,16,14,01,2.50
2015,07,16,14,02,12.70
2015,07,16,14,03,12.20
2015,07,16,14,04,17.50
2015,07,16,14,05,14.60
2015,07,16,14,06,7.80
2015,07,16,14,07,10.50
2015,07,16,14,08,10.20
2015,07,16,14,09,11.60
2015,07,16,14,10,9.90
2015,07,16,14,11,10.00
2015,07,16,14,12,8.60
2015,07,16,14,13,2.90
2015,07,16,14,14,5.10
2015,07,16,14,15,3.60
2015,07,16,14,16,2.50
2015,07,16,14,17,3.60
2015,07,16,14,18,4.10
2015,07,16,14,19,2.30
2015,07,16,14,20,5.30
2015,07,16,14,21,12.60
2015,07,16,14,22,12.70
2015,07,16,14,23,14.60
2015,07,16,14,24,11.00
2015,07,16,14,25,10.20
2015,07,16,14,26,13.60
2015,07,16,14,27,8.00
2015,07,16,14,28,4.10
2015,07,16,14,29,3.70
2015,07,16,14,30,4.70
2015,07,16,14,31,8.00
2015,07,16,14,32,7.10
2015,07,16,14,33,7.80
2015,07,16,14,34,7.70
2015,07,16,14,35,10.50
2015,07,16,14,36,3.70
2015,07,16,14,37,8.50
2015,07,16,14,38,6.40
2015,07,16,14,39,14.70
2015,07,16,14,40,14.20
2015,07,16,14,41,6.60
2015,07,16,14,42,10.80
2015,07,16,14,43,9.80
2015,07,16,14,44,6.10
2015,07,16,14,45,7.90
2015,07,16,14,46,4.00
2015,07,16,14,47,4.50
2015,07,16,14,48,6.90
2015,07,16,14,49,5.10
2015,07,16,14,50,7.50
2015,07,16,14,51,6.00
2015,07,16,14,52,8.40
2015,07,16,14,53,5.30
2015,07,16,14,54,6.50
2015,07,16,14,55,6.70
2015,07,16,14,56,8.00
2015,07,16,14,57,6.40
2015,07,16,14,58,11.90
2015,07,16,14,59,8.00
2015,07,16,15,00,3.20
2015,07,16,15,01,12.30
2015,07,16,15,02,10.50
2015,07,16,15,03,14.40
2015,07,16,15,04,7.90
2015,07,16,15,05,3.30
2015,07,16,15,06,1.40
2015,07,16,15,07,5.80
2015,07,16,15,08,3.80
2015,07,16,15,09,9.40
2015,07,16,15,10,7.60
2015,07,16,15,11,5.80
2015,07,16,15,12,0.90
2015,07,16,15,13,4.20
2015,07,16,15,14,5.20
2015,07,16,15,15,4.00
2015,07,16,15,16,0.30
2015,07,16,15,17,4.30
2015,07,16,15,18,10.10
2015,07,16,15,19,15.50
2015,07,16,15,20,11.60
2015,07,16,15,21,3.30
2015,07,16,15,22,2.50
2015,07,16,15,23,4.80
2015,07,16,15,24,12.90
2015,07,16,15,25,19.50
2015,07,16,15,26,11.30
2015,07,16,15,27,11.40
2015,07,16,15,28,9.30
2015,07,16,15,29,4.00
2015,07,16,15,30,7.70
2015,07,16,15,31,5.70
2015,07,16,15,32,6.50
2015,07,16,15,33,14.20
2015,07,16,15,34,15.00
2015,07,16,15,35,13.20
2015,07,16,15,36,9.20
2015,07,16,15,37,5.20
2015,07,16,15,38,4.80
2015,07,16,15,39,8.00
2015,07,16,15,40,11.00
2015,07,16,15,41,17.40
2015,07,16,15,42,16.20
2015,07,16,15,43,10.50
2015,07,16,15,44,16.90
2015,07,16,15,45,14.60
2015,07,16,15,46,11.10
2015,07,16,15,47,9.20
2015,07,16,15,48,8.20
2015,07,16,15,49,3.80
2015,07,16,15,50,1.90
2015,07,16,15,51,1.30
2015,07,16,15,52,3.80
2015,07,16,15,53,3.20
2015,07,16,15,54,6.70
2015,07,16,15,55,6.70
2015,07,16,15,56,5.20
2015,07,16,15,57,4.00
2015,07,16,15,58,0.80
2015,07,16,15,59,0.20
2015,07,16,16,00,6.90
2015,07,16,16,01,9.50
2015,07,16,16,02,10.20
2015,07,16,16,03,6.80
2015,07,16,16,04,9.20
2015,07,16,16,05,14.60
2015,07,16,16,06,18.40
2015,07,16,16,07,16.90
2015,07,16,16,08,8.10
2015,07,16,16,09,11.30
2015,07,16,16,10,14.50
2015,07,16,16,11,13.10
2015,07,16,16,12,5.80
2015,07,16,16,13,1.50
2015,07,16,16,14,5.70
2015,07,16,16,15,16.90
2015,07,16,16,16,16.50
2015,07,16,16,17,12.90
2015,07,16,16,18,9.20
2015,07,16,16,19,15.30
2015,07,16,16,20,13.00
2015,07,16,16,21,6.30
2015,07,16,16,22,5.40
2015,07,16,16,23,9.10
2015,07,16,16,24,4.90
2015,07,16,16,25,11.30
2015,07,16,16,26,11.20
2015,07,16,16,27,7.40
2015,07,16,16,28,15.40
2015,07,16,16,29,13.50
2015,07,16,16,30,14.90
2015,07,16,16,31,11.30
2015,07,16,16,32,9.70
2015,07,16,16,33,1.20
2015,07,16,16,34,1.10
2015,07,16,16,35,2.30
2015,07,16,16,36,7.70
2015,07,16,16,37,6.50
2015,07,16,16,38,0.50
2015,07,16,16,39,0.50
2015,07,16,16,40,1.00
2015,07,16,16,41,2.00
2015,07,16,16,42,8.40
2015,07,16,16,43,9.50
2015,07,16,16,44,6.20
2015,07,16,16,45,5.80
2015,07,16,16,46,4.10
2015,07,16,16,47,2.80
2015,07,16,16,48,3.80
2015,07,16,16,49,9.70
2015,07,16,16,50,13.30
2015,07,16,16,51,11.10
2015,07,16,16,52,0.20
2015,07,16,16,53,5.60
2015,07,16,16,54,3.80
2015,07,16,16,55,3.80
2015,07,16,16,56,7.90
2015,07,16,16,57,15.40
2015,07,16,16,58,10.40
2015,07,16,16,59,15.60
2015,07,16,17,00,8.10
2015,07,16,17,01,3.60
2015,07,16,17,02,7.10
2015,07,16,17,03,15.20
2015,07,16,17,04,11.30
2015,07,16,17,05,7.60
2015,07,16,17,06,7.00
2015,07,16,17,07,5.10
2015,07,16,17,08,5.60
2015,07,16,17,09,3.40
2015,07,16,17,10,8.10
2015,07,16,17,11,6.60
2015,07,16,17,12,3.30
2015,07,16,17,13,5.90
2015,07,16,17,14,1.90
2015,07,16,17,15,4.50
2015,07,16,17,16,10.90
2015,07,16,17,17,7.30
2015,07,16,17,18,6.70
2015,07,16,17,19,8.70
2015,07,16,17,20,5.60
2015,07,16,17,21,5.20
2015,07,16,17,22,1.50
2015,07,16,17,23,4.90
2015,07,16,17,24,9.00
2015,07,16,17,25,8.70
2015,07,16,17,26,7.40
2015,07,16,17,27,3.50
2015,07,16,17,28,6.20
2015,07,16,17,29,0.60
2015,07,16,17,30,0.40
2015,07,16,17,31,4.30
2015,07,16,17,32,0.90
2015,07,16,17,33,2.00
2015,07,16,17,34,0.30
2015,07,16,17,35,2.10
2015,07,16,17,36,4.30
2015,07,16,17,37,5.20
2015,07,16,17,38,0.80
2015,07,16,17,39,4.80
2015,07,16,17,40,6.50
2015,07,16,17,41,1.50
2015,07,16,17,42,1.40
2015,07,16,17,43,2.00
2015,07,16,17,44,3.10
2015,07,16,17,45,1.20
2015,07,16,17,46,4.90
2015,07,16,17,47,3.90
2015,07,16,17,48,10.60
2015,07,16,17,49,3.20
2015,07,16,17,50,1.40
2015,07,16,17,51,1.20
2015,07,16,17,52,0.80
2015,07,16,17,53,1.40
2015,07,16,17,54,0.90
2015,07,16,17,55,0.60
2015,07,16,17,56,0.00
2015,07,16,17,57,2.20
2015,07,16,17,58,0.60
2015,07,16,17,59,0.90
2015,07,16,18,00,0.00
2015,07,16,18,01,0.00
2015,07,16,18,02,1.00
2015,07,16,18,03,0.50